[[{"header":{"parameterUnit":"m.s-1","parameterCategory":2,"la1":30.2991,"la2":30.254,"lo1":-89.0895,"lo2":-89.0444,"dy":0.0017,"dx":0.0017,"nx":28,"ny":28,"refTime":"2024-08-26T09:00:00:Z","depth":"0","parameterNumber":2,"parameterNumberName":"U-component_of_CURRENTS"},"data":[0,0,0,0,0,0,0,0,0,0,0,0,0,0,0,0,0,0,0,0,0,0,0,0,0,0,0,0,0,0,0,0,0,0,0,0,0,0,0,0,0,0,0,0,0,0,0,0,0,0,0,0,0,0,0,0,0,0,-0.1619,-0.1621,0,-0.1787,-0.1789,-0.1791,-0.1795,-0.1793,-0.1791,-0.1789,-0.1758,-0.1759,-0.176,0,0,0,0,0,0,0,0,0,0,0,0,0,-0.1414,-0.1417,-0.1619,-0.1621,-0.1623,-0.1787,-0.1789,-0.1791,-0.1795,-0.1793,-0.179,-0.1788,-0.1758,-0.1759,-0.176,0,0,0,0,0,0,0,0,0,0,0,0,0,-0.1534,-0.1418,-0.1618,-0.1645,-0.165,-0.1786,-0.1789,-0.1792,-0.1796,-0.1793,-0.179,-0.1787,-0.1757,-0.1759,-0.1761,-0.183,0,0,-0.1765,-0.1766,0,0,0,0,0,0,0,0,-0.1527,-0.1541,-0.1639,-0.1644,-0.1649,-0.1768,-0.1706,-0.1795,-0.1797,-0.174,-0.1789,-0.1786,-0.1746,-0.1748,-0.1788,-0.1829,-0.1828,-0.1765,-0.1766,-0.1767,-0.1768,0,0,0,0,0,0,0,-0.1518,-0.1535,-0.1684,-0.1642,-0.1648,-0.1688,-0.1701,-0.1724,-0.1753,-0.1744,-0.1745,-0.1766,-0.1746,-0.1787,-0.1787,-0.1827,-0.1765,-0.1767,-0.1768,-0.1768,-0.1896,-0.1899,0,0,0,0,0,0,-0.1497,-0.1527,-0.1679,-0.169,-0.158,-0.1694,-0.1708,-0.1732,-0.1757,-0.176,-0.1769,-0.1766,-0.1786,-0.1785,-0.1785,-0.1867,-0.1767,-0.1769,-0.1769,-0.1894,-0.1897,-0.19,0,0,0,0,0,0,-0.1492,-0.151,-0.1672,-0.1612,-0.1635,-0.17,-0.1727,-0.1737,-0.1764,-0.1778,-0.1776,-0.1784,-0.1783,-0.1783,-0.182,-0.1864,-0.1769,-0.1771,-0.1891,-0.1895,-0.1898,-0.2029,0,0,0,0,0,0,-0.1486,-0.1507,-0.1516,-0.1611,-0.1638,-0.1756,-0.1731,-0.1742,-0.1783,-0.178,-0.1791,-0.1786,-0.1781,-0.1818,-0.1822,-0.1865,-0.1772,-0.1888,-0.1893,-0.1897,-0.2022,-0.2037,-0.205,0,0,0,0,0,-0.1478,-0.1505,-0.1515,-0.1534,-0.1649,-0.1758,-0.1777,-0.1811,-0.1786,-0.1819,-0.1828,-0.1785,-0.1849,-0.1823,-0.1826,-0.187,-0.1886,-0.1891,-0.1897,-0.2016,-0.2034,-0.205,0,0,0,0,0,0,-0.1424,-0.1512,-0.1523,-0.1575,-0.1659,-0.1759,-0.1789,-0.1814,-0.1855,-0.1835,-0.1829,-0.1829,-0.188,-0.1858,-0.1829,-0.192,-0.1855,-0.1862,-0.1945,-0.1962,-0.1976,-0.1997,-0.1773,0,0,0,0,0,-0.1417,-0.1451,-0.1554,-0.1592,-0.1632,-0.1708,-0.1752,-0.1786,-0.1838,-0.1852,-0.1868,-0.1878,-0.1914,-0.192,-0.1946,-0.1999,-0.1993,-0.2025,-0.2039,-0.2051,-0.2071,-0.2088,-0.2106,-0.1918,-0.1918,-0.1918,0,0,-0.1405,-0.1457,-0.1475,-0.1582,-0.1639,-0.1737,-0.1726,-0.18,-0.1886,-0.1841,-0.1932,-0.1932,-0.1941,-0.2011,-0.2028,-0.1991,-0.2111,-0.2058,-0.2068,-0.2082,-0.2096,-0.2114,-0.213,-0.1921,-0.1921,-0.192,0,0,-0.1411,-0.1447,-0.1485,-0.1571,-0.167,-0.174,-0.176,-0.1868,-0.1913,-0.2013,-0.1999,-0.2036,-0.2085,-0.2119,-0.2136,-0.2242,-0.219,-0.2224,-0.231,-0.2328,-0.2343,-0.2357,-0.2414,-0.2431,-0.2224,-0.2225,-0.2225,0,-0.139,-0.1457,-0.1516,-0.1601,-0.1667,-0.1742,-0.1824,-0.192,-0.2028,-0.2081,-0.2047,-0.2161,-0.2154,-0.2258,-0.2288,-0.2279,-0.2275,-0.2246,-0.2346,-0.2359,-0.2371,-0.2426,-0.2443,-0.2232,-0.2231,-0.223,-0.2229,0,-0.1445,-0.1511,-0.1547,-0.1674,-0.1762,-0.1842,-0.1983,-0.2084,-0.2132,-0.2211,-0.2319,-0.2337,-0.2392,-0.2399,-0.2377,-0.2462,-0.2433,-0.2367,-0.2303,-0.2398,-0.245,-0.2466,-0.2242,-0.2239,-0.2237,-0.2235,0,0,-0.1377,-0.1543,-0.1559,-0.1635,-0.18,-0.189,-0.2055,-0.222,-0.234,-0.2423,-0.2544,-0.261,-0.2592,-0.2609,-0.2584,-0.26,-0.2687,-0.2511,-0.2509,-0.2571,-0.2748,-0.2653,-0.2661,-0.2613,-0.2616,-0.2618,-0.2766,0,-0.1396,-0.1518,-0.1617,-0.1779,-0.186,-0.2014,-0.218,-0.2346,-0.2461,-0.2611,-0.2654,-0.2744,-0.2682,-0.2694,-0.2711,-0.2682,-0.2727,-0.2655,-0.2645,-0.2647,-0.2551,-0.2675,-0.241,-0.251,-0.2781,-0.2784,-0.2786,0,-0.1429,-0.1502,-0.1614,-0.1842,-0.1898,-0.2014,-0.2269,-0.2434,-0.2668,-0.2755,-0.2849,-0.2881,-0.2955,-0.2859,-0.2908,-0.285,-0.2821,-0.2799,-0.2802,-0.2676,-0.258,-0.2451,-0.2528,-0.2443,-0.2809,-0.2807,-0.2806,0,-0.1333,-0.1529,-0.1596,-0.1671,-0.193,-0.2028,-0.2179,-0.2438,-0.2594,-0.2814,-0.2917,-0.3014,-0.3049,-0.3038,-0.3009,-0.2946,-0.3049,-0.2953,-0.2875,-0.2869,-0.2626,-0.2593,-0.2613,-0.3007,-0.3007,-0.3007,-0.3006,0,-0.1325,-0.141,-0.1553,-0.1604,-0.1749,-0.1959,-0.2144,-0.2351,-0.2607,-0.2786,-0.2937,-0.3069,-0.3079,-0.3142,-0.3089,-0.305,-0.3119,-0.2934,-0.2905,-0.2668,-0.2639,-0.2534,-0.2555,-0.3012,-0.3011,-0.301,-0.3009,0,-0.125,-0.1332,-0.1435,-0.1633,-0.1698,-0.18,-0.2081,-0.2242,-0.2512,-0.2743,-0.281,-0.3092,-0.3179,-0.3218,-0.3228,-0.3143,-0.3041,-0.3093,-0.2843,-0.2779,-0.256,-0.2599,-0.2677,-0.2616,-0.302,-0.3018,-0.3017,0,-0.1232,-0.1256,-0.1385,-0.1415,-0.1491,-0.1656,-0.1791,-0.2121,-0.2297,-0.2753,-0.2854,-0.3068,-0.3166,-0.3219,-0.3094,-0.3035,-0.3029,-0.2811,-0.2635,-0.2557,-0.2579,-0.2623,-0.257,-0.2394,-0.2388,-0.2383,-0.2379,0,-0.1197,-0.1207,-0.1267,-0.1279,-0.1366,-0.1509,-0.1717,-0.1846,-0.227,-0.2491,-0.2799,-0.2918,-0.3014,-0.2829,-0.2792,-0.274,-0.2676,-0.2704,-0.2662,-0.2149,-0.2158,-0.2078,-0.2343,-0.2334,-0.2338,-0.2342,-0.2344,-0.2346,-0.1147,-0.1147,-0.1158,-0.1186,-0.125,-0.1345,-0.1405,-0.166,-0.1905,-0.2187,-0.2455,-0.2489,-0.2456,-0.2327,-0.2328,-0.217,-0.2349,-0.2038,-0.2121,-0.2197,-0.2043,-0.2248,-0.2165,-0.2168,-0.2171,-0.2174,-0.2176,0,-0.1118,-0.1099,-0.1083,-0.109,-0.1082,-0.1169,-0.1358,-0.1412,-0.1587,-0.1755,-0.1892,-0.1745,-0.1628,-0.1683,-0.1604,-0.154,-0.1529,-0.1589,-0.1546,-0.1539,-0.1706,-0.157,-0.1302,-0.1302,-0.1302,-0.1302,-0.1302,-0.1302,-0.1099,-0.1062,-0.1036,-0.094,-0.0919,-0.0897,-0.0952,-0.1041,-0.1112,-0.1094,-0.1002,-0.0948,-0.1092,-0.1288,-0.1262,-0.1232,-0.1242,-0.122,-0.1394,-0.1424,-0.147,-0.1513,-0.1386,-0.1083,-0.1083,-0.1043,-0.1043,-0.1043]},{"header":{"parameterUnit":"m.s-1","parameterCategory":2,"la1":30.2991,"la2":30.254,"lo1":-89.0895,"lo2":-89.0444,"dy":0.0017,"dx":0.0017,"nx":28,"ny":28,"refTime":"2024-08-26T09:00:00:Z","depth":"0","parameterNumber":3,"parameterNumberName":"V-component_of_CURRENTS"},"data":[0,0,0,0,0,0,0,0,0,0,0,0,0,0,0,0,0,0,0,0,0,0,0,0,0,0,0,0,0,0,0,0,0,0,0,0,0,0,0,0,0,0,0,0,0,0,0,0,0,0,0,0,0,0,0,0,0,0,-0.1473,-0.1472,0,-0.1224,-0.1221,-0.1217,-0.1045,-0.1045,-0.1045,-0.1045,-0.0698,-0.0689,-0.068,0,0,0,0,0,0,0,0,0,0,0,0,0,-0.1535,-0.1536,-0.1474,-0.1472,-0.147,-0.1225,-0.122,-0.1216,-0.1045,-0.1045,-0.1045,-0.1045,-0.0701,-0.069,-0.0679,0,0,0,0,0,0,0,0,0,0,0,0,0,-0.1408,-0.1536,-0.1474,-0.1365,-0.1354,-0.1226,-0.122,-0.1214,-0.1045,-0.1045,-0.1045,-0.1045,-0.0704,-0.0691,-0.0677,-0.0593,0,0,-0.0635,-0.0629,0,0,0,0,0,0,0,0,-0.1416,-0.1404,-0.1383,-0.1373,-0.136,-0.1178,-0.1115,-0.1006,-0.1045,-0.1148,-0.1045,-0.1045,-0.0858,-0.0831,-0.0767,-0.0577,-0.0562,-0.0634,-0.0625,-0.0619,-0.0616,0,0,0,0,0,0,0,-0.1425,-0.1412,-0.1361,-0.1381,-0.1367,-0.1239,-0.1221,-0.1092,-0.0994,-0.1139,-0.113,-0.1123,-0.0849,-0.0781,-0.0758,-0.0557,-0.0634,-0.0622,-0.0613,-0.0608,-0.0247,-0.0246,0,0,0,0,0,0,-0.1497,-0.1423,-0.1369,-0.1355,-0.1403,-0.124,-0.1219,-0.1225,-0.0997,-0.0967,-0.1124,-0.1117,-0.0804,-0.0774,-0.0745,-0.0588,-0.062,-0.0607,-0.0599,-0.0248,-0.0247,-0.0245,0,0,0,0,0,0,-0.1499,-0.1495,-0.138,-0.1392,-0.1371,-0.1242,-0.1247,-0.1221,-0.1149,-0.0989,-0.0954,-0.1082,-0.0803,-0.0764,-0.0595,-0.0575,-0.06,-0.0588,-0.025,-0.0248,-0.0246,-0.0303,0,0,0,0,0,0,-0.1502,-0.1498,-0.1506,-0.1399,-0.1373,-0.1325,-0.1248,-0.1216,-0.1152,-0.1139,-0.0942,-0.0909,-0.08,-0.0616,-0.0581,-0.0557,-0.0577,-0.0251,-0.0249,-0.0247,-0.0303,-0.0303,-0.0303,0,0,0,0,0,-0.1505,-0.1529,-0.1508,-0.1501,-0.1397,-0.1327,-0.13,-0.1197,-0.1151,-0.1128,-0.0962,-0.0915,-0.0578,-0.0602,-0.0562,-0.0533,-0.0253,-0.025,-0.0247,-0.0302,-0.0303,-0.0303,0,0,0,0,0,0,-0.1544,-0.1512,-0.1486,-0.1495,-0.1431,-0.1304,-0.1271,-0.1205,-0.1054,-0.1025,-0.0867,-0.0821,-0.0674,-0.0595,-0.0627,-0.0426,-0.042,-0.0409,-0.0477,-0.0476,-0.0476,-0.0524,-0.0566,0,0,0,0,0,-0.1569,-0.1583,-0.1519,-0.1521,-0.15,-0.1384,-0.1337,-0.1271,-0.1142,-0.1075,-0.0931,-0.0776,-0.063,-0.0549,-0.0416,-0.0289,-0.0278,-0.0256,-0.0257,-0.0257,-0.027,-0.0232,-0.0232,-0.0236,-0.0236,-0.0236,0,0,-0.1583,-0.1568,-0.1572,-0.1531,-0.1465,-0.1424,-0.1351,-0.1293,-0.1218,-0.106,-0.0895,-0.0766,-0.0597,-0.0449,-0.0381,-0.0378,-0.0253,-0.0254,-0.0255,-0.0268,-0.0229,-0.0229,-0.0229,-0.0234,-0.0234,-0.0234,0,0,-0.1625,-0.1609,-0.1633,-0.1594,-0.1532,-0.1451,-0.1448,-0.1321,-0.1224,-0.1073,-0.0933,-0.0791,-0.0574,-0.0441,-0.0349,-0.0276,-0.0258,-0.0249,-0.0277,-0.024,-0.0241,-0.0241,-0.0252,-0.0253,-0.0249,-0.0249,-0.0249,0,-0.1636,-0.1662,-0.1621,-0.1626,-0.1583,-0.1477,-0.1455,-0.1343,-0.1163,-0.107,-0.104,-0.0707,-0.0572,-0.0378,-0.0347,-0.0278,-0.0278,-0.0288,-0.0245,-0.0245,-0.0244,-0.0255,-0.0255,-0.0251,-0.0251,-0.025,-0.025,0,-0.1686,-0.1699,-0.1705,-0.1675,-0.1619,-0.1587,-0.1458,-0.1374,-0.1254,-0.1117,-0.0916,-0.0726,-0.0544,-0.0479,-0.0376,-0.0282,-0.0294,-0.0256,-0.0257,-0.0248,-0.0259,-0.0258,-0.0254,-0.0254,-0.0253,-0.0252,0,0,-0.1716,-0.1739,-0.1738,-0.1746,-0.164,-0.1609,-0.1491,-0.1342,-0.1259,-0.1075,-0.0954,-0.0692,-0.0604,-0.0497,-0.0366,-0.0317,-0.0305,-0.0293,-0.029,-0.0329,-0.0271,-0.014,-0.0127,-0.027,-0.0269,-0.0269,-0.0292,0,-0.1751,-0.18,-0.1771,-0.1766,-0.1764,-0.1651,-0.156,-0.1408,-0.1236,-0.1093,-0.0885,-0.0719,-0.0601,-0.0534,-0.0454,-0.0329,-0.0302,-0.0305,-0.0253,-0.0252,-0.0155,-0.0119,-0.0002,0.0001,-0.0291,-0.0291,-0.0291,0,-0.1788,-0.1819,-0.1842,-0.1835,-0.1822,-0.1791,-0.1638,-0.154,-0.1303,-0.1177,-0.0981,-0.0817,-0.0649,-0.0601,-0.0417,-0.0432,-0.0368,-0.0298,-0.0297,-0.0154,-0.0116,-0.0045,0.0014,0.0157,-0.029,-0.029,-0.029,0,-0.1825,-0.1859,-0.1884,-0.1877,-0.1842,-0.182,-0.1766,-0.1554,-0.1466,-0.1233,-0.1162,-0.0913,-0.0827,-0.069,-0.0489,-0.0479,-0.0344,-0.0314,-0.0145,-0.0139,-0.0014,0.0006,0.0177,-0.0244,-0.0244,-0.0244,-0.0244,0,-0.1857,-0.1887,-0.1927,-0.1949,-0.1967,-0.1901,-0.1853,-0.1744,-0.1594,-0.1493,-0.1225,-0.1111,-0.0854,-0.0702,-0.0547,-0.0322,-0.0388,-0.0149,-0.0117,-0.0029,-0.0011,0.0141,0.0186,-0.0245,-0.0244,-0.0244,-0.0244,0,-0.1882,-0.1912,-0.1965,-0.1985,-0.1997,-0.1999,-0.1971,-0.1928,-0.1774,-0.1658,-0.1609,-0.1298,-0.1048,-0.0789,-0.0567,-0.0398,-0.0085,-0.013,-0.0054,-0.0008,0.0327,0.0363,0.0534,0.0639,0.0049,0.0052,0.0055,0,-0.1899,-0.1937,-0.201,-0.2051,-0.2069,-0.2087,-0.2099,-0.201,-0.1968,-0.1749,-0.1716,-0.143,-0.1122,-0.0704,-0.0364,-0.0055,0.004,0.0167,0.0249,0.0378,0.0438,0.0442,0.0516,0.0356,0.0361,0.0365,0.0369,0,-0.1922,-0.1954,-0.1993,-0.2094,-0.2147,-0.2201,-0.2224,-0.2239,-0.2126,-0.202,-0.179,-0.1519,-0.0984,-0.0451,-0.0023,0.0142,0.0331,0.0265,0.0389,0.0701,0.0724,0.0828,0.0288,0.0406,0.0402,0.0399,0.0397,0.0396,-0.1923,-0.1956,-0.2032,-0.2115,-0.2189,-0.2277,-0.2313,-0.2339,-0.2298,-0.2094,-0.1823,-0.1334,-0.0552,0.0175,0.0341,0.0753,0.0655,0.0874,0.0896,0.0878,0.1043,0.0581,0.0762,0.0761,0.0759,0.0758,0.0757,0,-0.1928,-0.1975,-0.2056,-0.2156,-0.2242,-0.2284,-0.2367,-0.2395,-0.2373,-0.208,-0.176,-0.0734,-0.0009,0.0578,0.1217,0.1383,0.1376,0.1421,0.1441,0.148,0.1073,0.1158,0.1448,0.1448,0.1448,0.1448,0.1447,0.1447,-0.1931,-0.2001,-0.205,-0.2177,-0.225,-0.2349,-0.2394,-0.2441,-0.2301,-0.1802,-0.1201,-0.0652,0.0336,0.1326,0.1834,0.1842,0.1953,0.1938,0.1962,0.1674,0.1623,0.1575,0.1668,0.206,0.2061,0.239,0.2393,0.2396]}],[{"header":{"parameterUnit":"m.s-1","parameterCategory":2,"la1":30.2991,"la2":30.254,"lo1":-89.0895,"lo2":-89.0444,"dy":0.0017,"dx":0.0017,"nx":28,"ny":28,"refTime":"2024-08-26T09:00:00:Z","depth":"2","parameterNumber":2,"parameterNumberName":"U-component_of_CURRENTS"},"data":[0,0,0,0,0,0,0,0,0,0,0,0,0,0,0,0,0,0,0,0,0,0,0,0,0,0,0,0,0,0,0,0,0,0,0,0,0,0,0,0,0,0,0,0,0,0,0,0,0,0,0,0,0,0,0,0,0,0,-0.2462,-0.2463,0,-0.246,-0.2459,-0.2459,-0.2458,-0.2459,-0.2459,-0.246,-0.2381,-0.2378,-0.2376,0,0,0,0,0,0,0,0,0,0,0,0,0,-0.2387,-0.2388,-0.2462,-0.2463,-0.2464,-0.246,-0.2459,-0.2458,-0.2458,-0.2459,-0.2459,-0.246,-0.2382,-0.2379,-0.2376,0,0,0,0,0,0,0,0,0,0,0,0,0,-0.2399,-0.2389,-0.2462,-0.2468,-0.2469,-0.246,-0.2459,-0.2458,-0.2458,-0.2459,-0.246,-0.246,-0.2383,-0.2379,-0.2375,-0.2332,0,0,-0.2363,-0.2361,0,0,0,0,0,0,0,0,-0.2399,-0.2401,-0.2466,-0.2467,-0.2468,-0.2466,-0.2404,-0.2414,-0.2457,-0.2455,-0.246,-0.2461,-0.2406,-0.24,-0.2389,-0.2328,-0.2325,-0.2362,-0.236,-0.2358,-0.2357,0,0,0,0,0,0,0,-0.2398,-0.2401,-0.2455,-0.2467,-0.2468,-0.2443,-0.2446,-0.2405,-0.2419,-0.2455,-0.2457,-0.2467,-0.2405,-0.2393,-0.2387,-0.2324,-0.2363,-0.2359,-0.2357,-0.2355,-0.2295,-0.2296,0,0,0,0,0,0,-0.2415,-0.2401,-0.2455,-0.2455,-0.2443,-0.2445,-0.2447,-0.246,-0.2421,-0.2418,-0.2466,-0.2467,-0.24,-0.2392,-0.2384,-0.2406,-0.2358,-0.2355,-0.2352,-0.2295,-0.2296,-0.2296,0,0,0,0,0,0,-0.2413,-0.242,-0.2455,-0.2433,-0.2436,-0.2446,-0.246,-0.246,-0.2477,-0.2431,-0.2426,-0.2487,-0.24,-0.239,-0.237,-0.24,-0.2353,-0.2349,-0.2294,-0.2295,-0.2296,-0.2399,0,0,0,0,0,0,-0.2411,-0.2419,-0.2436,-0.2434,-0.2439,-0.2477,-0.246,-0.246,-0.2483,-0.2485,-0.2447,-0.2439,-0.24,-0.2376,-0.2366,-0.2393,-0.2346,-0.2293,-0.2294,-0.2296,-0.2395,-0.2404,-0.2412,0,0,0,0,0,-0.2408,-0.2424,-0.2436,-0.2443,-0.2461,-0.2478,-0.2478,-0.2482,-0.2484,-0.2499,-0.2468,-0.2442,-0.2379,-0.2373,-0.2361,-0.2388,-0.2292,-0.2294,-0.2295,-0.2391,-0.2402,-0.2412,0,0,0,0,0,0,-0.2401,-0.2427,-0.2439,-0.2464,-0.2486,-0.2482,-0.2491,-0.2499,-0.2487,-0.2489,-0.2442,-0.2432,-0.2423,-0.2389,-0.2384,-0.2375,-0.2335,-0.2334,-0.2412,-0.2421,-0.243,-0.2452,-0.2343,0,0,0,0,0,-0.2409,-0.243,-0.2453,-0.2477,-0.2488,-0.2495,-0.2504,-0.2516,-0.2507,-0.2505,-0.2479,-0.2447,-0.2415,-0.2408,-0.2369,-0.2363,-0.2339,-0.2374,-0.2383,-0.239,-0.24,-0.2414,-0.2425,-0.2303,-0.2302,-0.2302,0,0,-0.2411,-0.2432,-0.2442,-0.2478,-0.2486,-0.2508,-0.2502,-0.253,-0.2557,-0.2494,-0.2508,-0.2468,-0.2416,-0.2408,-0.2404,-0.2391,-0.2407,-0.2393,-0.24,-0.2405,-0.2417,-0.2429,-0.244,-0.2304,-0.2304,-0.2303,0,0,-0.2426,-0.2447,-0.2469,-0.2477,-0.2512,-0.2532,-0.2552,-0.2567,-0.2585,-0.2594,-0.2553,-0.2539,-0.2495,-0.2472,-0.245,-0.2482,-0.2443,-0.2472,-0.2543,-0.2557,-0.2568,-0.2577,-0.254,-0.2545,-0.2488,-0.2488,-0.2488,0,-0.2434,-0.2465,-0.2479,-0.2491,-0.2501,-0.255,-0.257,-0.2598,-0.261,-0.263,-0.2615,-0.2574,-0.2528,-0.2526,-0.2534,-0.2503,-0.2489,-0.2511,-0.2571,-0.2579,-0.2587,-0.2547,-0.2552,-0.2493,-0.2492,-0.2492,-0.2491,0,-0.245,-0.2477,-0.2487,-0.2528,-0.2539,-0.257,-0.2606,-0.2645,-0.2678,-0.2707,-0.2726,-0.2672,-0.265,-0.2639,-0.259,-0.2624,-0.2586,-0.2574,-0.2551,-0.2606,-0.2559,-0.2562,-0.25,-0.2499,-0.2497,-0.2496,0,0,-0.2453,-0.2502,-0.2499,-0.2517,-0.2559,-0.2571,-0.263,-0.2701,-0.2744,-0.2781,-0.2805,-0.2787,-0.2782,-0.2756,-0.2709,-0.2724,-0.2746,-0.2681,-0.2679,-0.2655,-0.2749,-0.2566,-0.2551,-0.2757,-0.2759,-0.276,-0.2687,0,-0.2473,-0.2524,-0.2525,-0.256,-0.259,-0.2616,-0.266,-0.272,-0.2774,-0.2809,-0.2827,-0.2826,-0.2825,-0.2797,-0.2825,-0.2766,-0.2762,-0.2765,-0.269,-0.2686,-0.2528,-0.2552,-0.2381,-0.2289,-0.2689,-0.2689,-0.269,0,-0.2461,-0.2514,-0.2568,-0.2595,-0.2602,-0.2643,-0.2708,-0.2748,-0.2828,-0.2855,-0.2904,-0.2887,-0.2919,-0.2878,-0.2893,-0.2901,-0.2829,-0.2788,-0.2785,-0.2583,-0.251,-0.2301,-0.2278,-0.2694,-0.2693,-0.2693,-0.2693,0,-0.2455,-0.2505,-0.2569,-0.2572,-0.2638,-0.2674,-0.2723,-0.2797,-0.2848,-0.2894,-0.292,-0.2959,-0.295,-0.2949,-0.2881,-0.2891,-0.2852,-0.285,-0.2615,-0.26,-0.2421,-0.2386,-0.2822,-0.2822,-0.2822,-0.2822,-0.2822,0,-0.245,-0.2469,-0.2592,-0.2619,-0.2694,-0.2701,-0.279,-0.2829,-0.2898,-0.2928,-0.2963,-0.2952,-0.2971,-0.2939,-0.2892,-0.2766,-0.2874,-0.262,-0.2576,-0.2444,-0.2414,-0.2743,-0.2735,-0.2819,-0.282,-0.282,-0.2821,0,-0.2384,-0.2474,-0.2542,-0.2659,-0.2703,-0.2752,-0.2863,-0.2894,-0.2977,-0.2999,-0.3007,-0.2991,-0.292,-0.2898,-0.282,-0.2742,-0.2649,-0.255,-0.2362,-0.2295,-0.2382,-0.238,-0.231,-0.2303,-0.2297,-0.2292,-0.2288,0,-0.2355,-0.2398,-0.257,-0.2615,-0.268,-0.2782,-0.2832,-0.2947,-0.2965,-0.2992,-0.296,-0.2902,-0.2728,-0.2584,-0.248,-0.2343,-0.2453,-0.2072,-0.205,-0.2368,-0.2334,-0.2341,-0.2347,-0.1852,-0.1844,-0.1839,-0.1834,0,-0.2251,-0.233,-0.2375,-0.2523,-0.2613,-0.269,-0.2771,-0.2802,-0.2856,-0.2814,-0.2662,-0.2513,-0.2407,-0.213,-0.1982,-0.1905,-0.21,-0.1937,-0.2346,-0.1992,-0.1926,-0.1895,-0.1919,-0.178,-0.1786,-0.179,-0.1792,-0.1795,-0.2124,-0.2137,-0.2211,-0.2306,-0.2424,-0.2448,-0.242,-0.2426,-0.2337,-0.2139,-0.2226,-0.193,-0.1978,-0.1581,-0.1528,-0.1534,-0.1664,-0.1586,-0.161,-0.164,-0.1584,-0.151,-0.1273,-0.1276,-0.1278,-0.128,-0.1281,0,-0.1893,-0.1895,-0.196,-0.2031,-0.2043,-0.2217,-0.2225,-0.209,-0.1819,-0.1708,-0.1487,-0.1266,-0.1061,-0.1182,-0.1087,-0.1058,-0.1128,-0.1029,-0.1133,-0.1183,-0.1228,-0.116,-0.0733,-0.0731,-0.073,-0.0729,0,0,-0.1749,-0.1674,-0.1699,-0.1593,-0.1662,-0.1594,-0.1549,-0.1362,-0.1239,-0.0874,-0.073,-0.0749,-0.0955,-0.0762,-0.0796,-0.0728,-0.0933,-0.069,-0.1119,-0.1278,-0.1321,-0.1529,-0.1473,0,0,0,0,0]},{"header":{"parameterUnit":"m.s-1","parameterCategory":2,"la1":30.2991,"la2":30.254,"lo1":-89.0895,"lo2":-89.0444,"dy":0.0017,"dx":0.0017,"nx":28,"ny":28,"refTime":"2024-08-26T09:00:00:Z","depth":"2","parameterNumber":3,"parameterNumberName":"V-component_of_CURRENTS"},"data":[0,0,0,0,0,0,0,0,0,0,0,0,0,0,0,0,0,0,0,0,0,0,0,0,0,0,0,0,0,0,0,0,0,0,0,0,0,0,0,0,0,0,0,0,0,0,0,0,0,0,0,0,0,0,0,0,0,0,0.0819,0.082,0,0.0868,0.0868,0.0869,0.0876,0.0876,0.0876,0.0876,0.0842,0.0841,0.084,0,0,0,0,0,0,0,0,0,0,0,0,0,0.0686,0.0689,0.0819,0.082,0.0821,0.0868,0.0868,0.0869,0.0876,0.0876,0.0876,0.0876,0.0842,0.0841,0.084,0,0,0,0,0,0,0,0,0,0,0,0,0,0.0736,0.0689,0.0819,0.0834,0.0836,0.0868,0.0868,0.0869,0.0876,0.0876,0.0876,0.0876,0.0842,0.0841,0.084,0.0832,0,0,0.0836,0.0835,0,0,0,0,0,0,0,0,0.0733,0.074,0.083,0.0833,0.0835,0.087,0.081,0.0854,0.0876,0.0856,0.0876,0.0876,0.0847,0.0845,0.0849,0.083,0.0829,0.0835,0.0835,0.0834,0.0834,0,0,0,0,0,0,0,0.073,0.0738,0.0833,0.0832,0.0835,0.0823,0.083,0.0818,0.0845,0.0857,0.0859,0.0872,0.0847,0.085,0.0848,0.0828,0.0835,0.0834,0.0833,0.0833,0.0775,0.0774,0,0,0,0,0,0,0.0736,0.0736,0.0832,0.0835,0.0789,0.0826,0.0834,0.0855,0.0847,0.0848,0.0872,0.0873,0.0852,0.0849,0.0846,0.0797,0.0834,0.0833,0.0832,0.0776,0.0775,0.0774,0,0,0,0,0,0,0.0733,0.0745,0.083,0.0789,0.08,0.0829,0.0853,0.0856,0.0849,0.0861,0.0859,0.0862,0.0852,0.0848,0.0819,0.0797,0.0832,0.0831,0.0777,0.0776,0.0775,0.0724,0,0,0,0,0,0,0.073,0.0744,0.0747,0.079,0.0803,0.0836,0.0853,0.0857,0.0861,0.0861,0.0851,0.0848,0.0852,0.0821,0.0818,0.0796,0.083,0.0778,0.0776,0.0775,0.0726,0.0721,0.0716,0,0,0,0,0,0.0725,0.0724,0.0747,0.0758,0.0812,0.0836,0.084,0.0857,0.086,0.085,0.0842,0.0848,0.0811,0.0819,0.0816,0.0793,0.0778,0.0777,0.0775,0.0728,0.0722,0.0716,0,0,0,0,0,0,0.0657,0.0727,0.0752,0.0771,0.08,0.0839,0.0828,0.0848,0.0836,0.0825,0.0833,0.083,0.0795,0.0803,0.0812,0.0774,0.0798,0.0795,0.0763,0.0757,0.0752,0.0752,0.0829,0,0,0,0,0,0.065,0.0674,0.0732,0.0744,0.0754,0.079,0.0797,0.0813,0.082,0.0815,0.0809,0.0801,0.0788,0.0779,0.0767,0.0744,0.0776,0.073,0.0725,0.0721,0.0719,0.0768,0.0767,0.0769,0.0769,0.0769,0,0,0.0628,0.0669,0.0682,0.0732,0.075,0.0746,0.0791,0.0796,0.0787,0.0811,0.0772,0.0774,0.0776,0.0749,0.0735,0.0751,0.0733,0.0719,0.0715,0.0715,0.0766,0.0766,0.0766,0.0768,0.0768,0.0768,0,0,0.0582,0.0629,0.0625,0.0638,0.0671,0.0704,0.0703,0.0732,0.0736,0.0715,0.0728,0.0727,0.0695,0.0709,0.0708,0.0672,0.0701,0.0658,0.0635,0.0682,0.0683,0.0684,0.0711,0.0715,0.0661,0.0661,0.0661,0,0.0545,0.0557,0.0622,0.0604,0.0601,0.0678,0.0647,0.0671,0.0684,0.0686,0.0688,0.0681,0.0681,0.0679,0.066,0.0661,0.0683,0.0656,0.0677,0.0679,0.0681,0.0709,0.0714,0.0659,0.0659,0.0659,0.0659,0,0.0496,0.0488,0.0477,0.0494,0.05,0.0488,0.0535,0.054,0.056,0.0591,0.0589,0.0612,0.0614,0.0616,0.0617,0.0629,0.0637,0.0662,0.0694,0.0678,0.0708,0.0714,0.0655,0.0656,0.0656,0.0657,0,0,0.0441,0.0445,0.0433,0.0403,0.0434,0.0429,0.0428,0.0456,0.0451,0.0491,0.0486,0.05,0.0542,0.0546,0.0574,0.0617,0.0642,0.0633,0.0637,0.0662,0.0726,0.0683,0.0687,0.0668,0.0669,0.0669,0.0737,0,0.0372,0.0313,0.0341,0.0268,0.0234,0.0287,0.0274,0.0309,0.0355,0.0373,0.0456,0.0459,0.0511,0.0506,0.0562,0.062,0.0657,0.062,0.0736,0.0739,0.0706,0.0692,0.0664,0.0717,0.0743,0.0744,0.0745,0,0.0304,0.0273,0.019,0.0144,0.0132,0.0101,0.0103,0.0104,0.0184,0.0215,0.0286,0.036,0.0436,0.0473,0.0609,0.0579,0.0636,0.0696,0.0701,0.0684,0.0708,0.074,0.0728,0.0756,0.0755,0.0754,0.0754,0,0.0224,0.0159,0.009,0.0068,0.0041,-0.0,-0.0007,0.0044,0.004,0.0125,0.0151,0.0275,0.0323,0.0443,0.0576,0.0587,0.0716,0.0756,0.0779,0.0776,0.0787,0.0783,0.0836,0.0836,0.0836,0.0836,0.0836,0,0.0143,0.0073,0.0032,-0.0017,-0.0121,-0.0107,-0.0178,-0.0151,-0.0112,-0.0105,0.0059,0.012,0.0316,0.0432,0.0551,0.0678,0.0706,0.0768,0.0791,0.0765,0.0758,0.0824,0.0822,0.0838,0.0838,0.0837,0.0837,0,0.0059,0.0039,-0.0063,-0.013,-0.0168,-0.0248,-0.0312,-0.034,-0.0275,-0.0255,-0.0228,-0.0012,0.0169,0.0351,0.0542,0.0629,0.0761,0.0787,0.0728,0.0742,0.0798,0.0792,0.0842,0.0841,0.084,0.084,0.0839,0,0.0014,-0.0042,-0.0158,-0.024,-0.0289,-0.0394,-0.0458,-0.0442,-0.0452,-0.0315,-0.0302,-0.0108,0.0069,0.0342,0.0522,0.0713,0.0739,0.0753,0.0774,0.0781,0.0799,0.0795,0.079,0.0773,0.0772,0.0771,0.077,0,-0.0078,-0.0116,-0.0192,-0.0343,-0.0454,-0.0562,-0.0641,-0.0667,-0.061,-0.0532,-0.0354,-0.0189,0.0095,0.0347,0.0539,0.0644,0.0726,0.0738,0.0782,0.0757,0.0716,0.0734,0.0732,0.0763,0.0764,0.0764,0.0765,0.0765,-0.0142,-0.0217,-0.0304,-0.0448,-0.0576,-0.0685,-0.0742,-0.076,-0.0736,-0.0595,-0.0436,-0.0165,0.0072,0.0401,0.0553,0.0677,0.07,0.0737,0.0741,0.0745,0.0706,0.0664,0.0693,0.0694,0.0694,0.0694,0.0694,0,-0.0189,-0.0271,-0.0404,-0.0557,-0.068,-0.0737,-0.0824,-0.0823,-0.0759,-0.0603,-0.0421,-0.0118,0.0126,0.0372,0.0577,0.0691,0.0703,0.0692,0.0708,0.0713,0.0719,0.068,0.066,0.0661,0.0661,0.0661,0,0,-0.0224,-0.0323,-0.0381,-0.0588,-0.0708,-0.0831,-0.0865,-0.0828,-0.0721,-0.0507,-0.0312,-0.0146,0.0177,0.0303,0.0462,0.0583,0.0609,0.0573,0.0586,0.0591,0.0595,0.0727,0.0669,0,0,0,0,0]}],[{"header":{"parameterUnit":"m.s-1","parameterCategory":2,"la1":30.2991,"la2":30.254,"lo1":-89.0895,"lo2":-89.0444,"dy":0.0017,"dx":0.0017,"nx":28,"ny":28,"refTime":"2024-08-26T09:00:00:Z","depth":"4","parameterNumber":2,"parameterNumberName":"U-component_of_CURRENTS"},"data":[0,0,0,0,0,0,0,0,0,0,0,0,0,0,0,0,0,0,0,0,0,0,0,0,0,0,0,0,0,0,0,0,0,0,0,0,0,0,0,0,0,0,0,0,0,0,0,0,0,0,0,0,0,0,0,0,0,0,-0.0893,-0.0894,0,-0.0974,-0.0975,-0.0976,-0.1014,-0.1014,-0.1014,-0.1013,-0.1117,-0.112,-0.1123,0,0,0,0,0,0,0,0,0,0,0,0,0,-0.0843,-0.0843,-0.0893,-0.0894,-0.0895,-0.0974,-0.0975,-0.0976,-0.1014,-0.1014,-0.1013,-0.1013,-0.1116,-0.112,-0.1123,0,0,0,0,0,0,0,0,0,0,0,0,0,-0.089,-0.0844,-0.0893,-0.0922,-0.0925,-0.0974,-0.0975,-0.0977,-0.1014,-0.1014,-0.1013,-0.1013,-0.1115,-0.112,-0.1124,-0.1157,0,0,-0.1137,-0.1139,0,0,0,0,0,0,0,0,-0.0887,-0.0891,-0.0917,-0.092,-0.0924,-0.0982,-0.0996,-0.1038,-0.1014,-0.0982,-0.1013,-0.1013,-0.1074,-0.1081,-0.1099,-0.1162,-0.1166,-0.1138,-0.1141,-0.1142,-0.1144,0,0,0,0,0,0,0,-0.0883,-0.0889,-0.0926,-0.0918,-0.0922,-0.0956,-0.0961,-0.1004,-0.103,-0.0985,-0.0987,-0.0994,-0.1076,-0.1095,-0.1102,-0.1168,-0.1138,-0.1142,-0.1144,-0.1146,-0.1307,-0.1309,0,0,0,0,0,0,-0.0867,-0.0885,-0.0924,-0.0929,-0.0903,-0.0956,-0.0963,-0.0965,-0.1029,-0.1038,-0.0994,-0.0995,-0.1087,-0.1097,-0.1106,-0.1172,-0.1142,-0.1147,-0.1149,-0.1306,-0.1308,-0.131,0,0,0,0,0,0,-0.0866,-0.087,-0.0921,-0.0908,-0.0917,-0.0957,-0.0959,-0.0967,-0.1003,-0.1036,-0.1045,-0.1024,-0.1087,-0.1099,-0.1157,-0.1175,-0.1149,-0.1153,-0.1304,-0.1306,-0.1309,-0.129,0,0,0,0,0,0,-0.0864,-0.0869,-0.0876,-0.0907,-0.0917,-0.0956,-0.096,-0.0968,-0.1006,-0.1009,-0.1065,-0.1073,-0.1088,-0.1151,-0.1162,-0.1181,-0.1156,-0.1302,-0.1305,-0.1308,-0.1289,-0.1291,-0.1294,0,0,0,0,0,-0.0862,-0.0867,-0.0876,-0.0882,-0.0922,-0.0957,-0.0966,-0.0994,-0.1008,-0.1026,-0.1065,-0.1072,-0.1178,-0.1156,-0.1168,-0.1189,-0.13,-0.1304,-0.1308,-0.1287,-0.1291,-0.1294,0,0,0,0,0,0,-0.0853,-0.0872,-0.0883,-0.0895,-0.0927,-0.0962,-0.0987,-0.1007,-0.1054,-0.1064,-0.1094,-0.1106,-0.1162,-0.1187,-0.1161,-0.1248,-0.1241,-0.1247,-0.1221,-0.1225,-0.1228,-0.1218,-0.116,0,0,0,0,0,-0.0853,-0.0861,-0.089,-0.0903,-0.0921,-0.096,-0.0983,-0.1003,-0.1041,-0.1063,-0.1101,-0.1147,-0.1187,-0.1213,-0.1253,-0.1304,-0.1311,-0.1328,-0.1331,-0.1333,-0.1336,-0.1367,-0.1372,-0.1322,-0.1322,-0.1322,0,0,-0.0854,-0.0867,-0.0872,-0.0903,-0.0933,-0.0965,-0.0974,-0.1013,-0.1042,-0.1068,-0.1129,-0.1161,-0.1204,-0.1253,-0.1281,-0.1276,-0.1349,-0.1337,-0.1338,-0.1341,-0.1371,-0.1376,-0.138,-0.1324,-0.1324,-0.1323,0,0,-0.0861,-0.0874,-0.0887,-0.0917,-0.096,-0.0981,-0.0995,-0.1044,-0.1068,-0.1124,-0.1148,-0.1181,-0.1262,-0.1277,-0.1298,-0.1344,-0.1362,-0.1378,-0.1383,-0.1413,-0.1417,-0.142,-0.1414,-0.1417,-0.1379,-0.1379,-0.1379,0,-0.0867,-0.0881,-0.09,-0.093,-0.096,-0.099,-0.1025,-0.1053,-0.1114,-0.1142,-0.1143,-0.1244,-0.1262,-0.1314,-0.1325,-0.1345,-0.137,-0.1359,-0.1413,-0.1417,-0.1421,-0.1414,-0.1418,-0.1378,-0.1378,-0.1378,-0.1378,0,-0.0881,-0.0909,-0.0924,-0.0965,-0.1002,-0.1033,-0.1074,-0.1112,-0.1143,-0.1173,-0.1236,-0.1257,-0.1316,-0.1324,-0.1337,-0.1385,-0.1395,-0.1409,-0.1394,-0.1424,-0.1416,-0.142,-0.1377,-0.1378,-0.1378,-0.1378,0,0,-0.0855,-0.0918,-0.0926,-0.096,-0.1023,-0.1052,-0.1104,-0.1156,-0.1195,-0.1236,-0.1286,-0.1322,-0.134,-0.1366,-0.1384,-0.1397,-0.1416,-0.1423,-0.1424,-0.1397,-0.1479,-0.1394,-0.1389,-0.1459,-0.146,-0.1461,-0.1454,0,-0.0864,-0.0911,-0.0947,-0.1011,-0.1046,-0.1099,-0.1144,-0.1198,-0.1242,-0.1297,-0.1312,-0.1365,-0.1356,-0.1385,-0.14,-0.1429,-0.1432,-0.1416,-0.1472,-0.1473,-0.1378,-0.1393,-0.1465,-0.1456,-0.1457,-0.1458,-0.1458,0,-0.0861,-0.0898,-0.0945,-0.1038,-0.106,-0.1102,-0.1185,-0.1228,-0.1302,-0.1344,-0.1395,-0.1423,-0.1452,-0.1437,-0.1475,-0.1482,-0.1481,-0.148,-0.1481,-0.1412,-0.1395,-0.143,-0.1465,-0.1465,-0.1464,-0.1464,-0.1463,0,-0.081,-0.0903,-0.0933,-0.0962,-0.1059,-0.1101,-0.1157,-0.124,-0.1284,-0.1372,-0.1421,-0.147,-0.1495,-0.1517,-0.1511,-0.1517,-0.1541,-0.1544,-0.1454,-0.1447,-0.1532,-0.1529,-0.1559,-0.1559,-0.1559,-0.1559,-0.1559,0,-0.0786,-0.0825,-0.0915,-0.0927,-0.0994,-0.1078,-0.1147,-0.1215,-0.1305,-0.1345,-0.1438,-0.1468,-0.1525,-0.1544,-0.1536,-0.15,-0.156,-0.145,-0.1445,-0.1523,-0.1519,-0.1533,-0.153,-0.1559,-0.1559,-0.1559,-0.1559,0,-0.0719,-0.0769,-0.0809,-0.091,-0.0961,-0.0997,-0.1136,-0.1169,-0.1285,-0.1343,-0.1372,-0.1478,-0.1498,-0.1526,-0.1544,-0.1513,-0.1492,-0.1461,-0.1521,-0.152,-0.137,-0.1366,-0.1363,-0.136,-0.1357,-0.1355,-0.1354,0,-0.0685,-0.069,-0.0774,-0.0787,-0.0834,-0.0925,-0.0977,-0.1129,-0.1161,-0.1318,-0.1316,-0.1399,-0.1445,-0.1404,-0.145,-0.1431,-0.1416,-0.1406,-0.1399,-0.1357,-0.1353,-0.1353,-0.1353,-0.135,-0.1349,-0.1348,-0.1348,0,-0.0618,-0.0627,-0.0646,-0.0665,-0.0714,-0.0788,-0.0878,-0.0909,-0.1052,-0.1192,-0.1235,-0.1279,-0.1304,-0.1324,-0.1325,-0.131,-0.1421,-0.138,-0.1385,-0.1378,-0.1341,-0.1339,-0.1342,-0.1339,-0.134,-0.1341,-0.1342,0,-0.0556,-0.0537,-0.053,-0.055,-0.0581,-0.0603,-0.0696,-0.0763,-0.0845,-0.1037,-0.1039,-0.1153,-0.1257,-0.1259,-0.1254,-0.1244,-0.123,-0.1207,-0.1221,-0.1231,-0.1197,-0.1132,-0.1056,0,0,0,0,0,-0.0513,-0.0471,-0.0436,-0.043,-0.0429,-0.0473,-0.0593,-0.0685,-0.0857,-0.0847,-0.095,-0.0972,-0.103,-0.1095,-0.1054,-0.1175,-0.1209,-0.1126,-0.1182,-0.1291,-0.1301,-0.1276,0,0,0,0,0,0,-0.0474,-0.0437,-0.0398,-0.0305,-0.0279,-0.0304,-0.0376,-0.0503,-0.0524,-0.0706,-0.0732,-0.0903,-0.0949,-0.101,-0.1023,-0.1043,-0.106,-0.1213,-0.1211,-0.1285,-0.1294,-0.1302,-0.128,0,0,0,0,0]},{"header":{"parameterUnit":"m.s-1","parameterCategory":2,"la1":30.2991,"la2":30.254,"lo1":-89.0895,"lo2":-89.0444,"dy":0.0017,"dx":0.0017,"nx":28,"ny":28,"refTime":"2024-08-26T09:00:00:Z","depth":"4","parameterNumber":3,"parameterNumberName":"V-component_of_CURRENTS"},"data":[0,0,0,0,0,0,0,0,0,0,0,0,0,0,0,0,0,0,0,0,0,0,0,0,0,0,0,0,0,0,0,0,0,0,0,0,0,0,0,0,0,0,0,0,0,0,0,0,0,0,0,0,0,0,0,0,0,0,0.0022,0.0023,0,0.0045,0.0045,0.0045,0.0061,0.0061,0.0061,0.0062,0.0094,0.0094,0.0095,0,0,0,0,0,0,0,0,0,0,0,0,0,0.0024,0.0023,0.0022,0.0023,0.0023,0.0045,0.0045,0.0045,0.0061,0.0061,0.0061,0.0062,0.0093,0.0094,0.0095,0,0,0,0,0,0,0,0,0,0,0,0,0,0.003,0.0023,0.0022,0.0035,0.0037,0.0044,0.0045,0.0045,0.006,0.0061,0.0061,0.0062,0.0093,0.0094,0.0095,0.009,0,0,0.0097,0.0098,0,0,0,0,0,0,0,0,0.003,0.003,0.0033,0.0034,0.0036,0.0052,0.0057,0.0061,0.006,0.0049,0.0062,0.0062,0.0082,0.0083,0.0083,0.0091,0.0093,0.0097,0.0098,0.0098,0.0098,0,0,0,0,0,0,0,0.0029,0.0029,0.0029,0.0033,0.0035,0.0051,0.0052,0.0058,0.0061,0.005,0.0052,0.0058,0.0082,0.0082,0.0084,0.0093,0.0097,0.0098,0.0099,0.0099,0.0093,0.0093,0,0,0,0,0,0,0.0028,0.0028,0.0028,0.003,0.0037,0.005,0.0051,0.0045,0.0061,0.0064,0.0057,0.0058,0.0081,0.0083,0.0085,0.0069,0.0098,0.0099,0.0099,0.0094,0.0093,0.0093,0,0,0,0,0,0,0.0028,0.0028,0.0027,0.0032,0.0034,0.005,0.0042,0.0045,0.0053,0.0066,0.007,0.0064,0.0081,0.0084,0.0085,0.0071,0.0099,0.01,0.0095,0.0094,0.0093,0.0043,0,0,0,0,0,0,0.0028,0.0027,0.0025,0.0032,0.0033,0.0029,0.0042,0.0045,0.0057,0.0058,0.0073,0.0076,0.0082,0.0083,0.0085,0.0072,0.0101,0.0096,0.0094,0.0093,0.0046,0.0041,0.0036,0,0,0,0,0,0.0028,0.002,0.0024,0.0025,0.0028,0.0029,0.0031,0.0044,0.0057,0.0054,0.006,0.0076,0.0077,0.0083,0.0086,0.0073,0.0096,0.0095,0.0093,0.0048,0.0042,0.0037,0,0,0,0,0,0,0.002,0.0021,0.0026,0.0019,0.0024,0.0033,0.0035,0.0046,0.005,0.0055,0.0068,0.007,0.006,0.0077,0.0083,0.0068,0.009,0.0089,0.0054,0.0049,0.0044,0.0061,0.0101,0,0,0,0,0,0.0017,0.001,0.0017,0.0012,0.0014,0.0026,0.0031,0.004,0.0045,0.0048,0.0056,0.0063,0.0055,0.0061,0.0058,0.0057,0.0096,0.0051,0.0046,0.0042,0.0057,0.0087,0.0087,0.0088,0.0088,0.0088,0,0,0.0013,0.0014,0.001,0.001,0.0015,0.0012,0.0029,0.0035,0.0032,0.0051,0.0047,0.0045,0.0049,0.0035,0.0034,0.0051,0.0064,0.004,0.0037,0.0055,0.0085,0.0085,0.0086,0.0087,0.0087,0.0087,0,0,-0.0003,0.0001,-0.0011,-0.0006,0.0003,0.0007,0.001,0.0019,0.0022,0.0018,0.0021,0.0009,0.0017,0.0005,0.0002,-0.0026,0.0032,-0.0019,-0.002,0.0007,0.0007,0.0008,0.0069,0.0076,-0.0013,-0.0013,-0.0013,0,-0.0006,-0.0023,-0.0013,-0.0019,-0.0015,0.0004,-0.0003,-0.0001,0.0007,0.0008,0.0013,0.0006,-0.0003,-0.002,-0.0035,-0.0038,0.0013,-0.0003,0.0002,0.0003,0.0005,0.0067,0.0076,-0.0016,-0.0016,-0.0015,-0.0015,0,-0.003,-0.0039,-0.0044,-0.0049,-0.0043,-0.0046,-0.0036,-0.0035,-0.0026,-0.002,-0.0029,-0.0041,-0.0039,-0.0054,-0.0053,-0.005,-0.0007,-0.0015,0.0017,0.0002,0.0069,0.0078,-0.002,-0.0019,-0.0018,-0.0017,0,0,-0.0047,-0.0061,-0.0061,-0.0074,-0.0057,-0.0062,-0.006,-0.0061,-0.0061,-0.0055,-0.0051,-0.0084,-0.0069,-0.007,-0.0073,-0.0052,-0.0014,-0.0018,-0.0016,0.0046,0.0093,0.0082,0.0093,-0.0008,-0.0007,-0.0006,0.0138,0,-0.0069,-0.0102,-0.0091,-0.0113,-0.013,-0.0104,-0.0107,-0.0098,-0.0086,-0.0078,-0.0076,-0.0081,-0.0079,-0.0081,-0.006,-0.003,0.0009,-0.0049,0.0096,0.0101,0.0095,0.0101,-0.0003,0.0145,0.0147,0.0149,0.015,0,-0.009,-0.0116,-0.0148,-0.0161,-0.0162,-0.0165,-0.0158,-0.0157,-0.0131,-0.0119,-0.0098,-0.0079,-0.0059,-0.0059,0.0023,-0.0002,0.0051,0.0082,0.0088,0.0105,0.0107,0.0161,0.0168,0.0167,0.0165,0.0164,0.0163,0,-0.0119,-0.0148,-0.0182,-0.0184,-0.0196,-0.0199,-0.0196,-0.0172,-0.0176,-0.0137,-0.012,-0.0077,-0.0051,0.0012,0.0085,0.0067,0.0198,0.0171,0.0221,0.0223,0.0212,0.021,0.0242,0.0242,0.0242,0.0242,0.0241,0,-0.0141,-0.0168,-0.0205,-0.0223,-0.0263,-0.0239,-0.0259,-0.0242,-0.0214,-0.0216,-0.0143,-0.0118,-0.0027,0.0057,0.0114,0.0212,0.0227,0.0238,0.0255,0.0189,0.0182,0.022,0.0216,0.0247,0.0246,0.0245,0.0244,0,-0.0156,-0.0181,-0.0231,-0.0265,-0.0281,-0.0304,-0.0314,-0.0324,-0.0276,-0.0266,-0.0251,-0.0132,-0.0016,0.0088,0.0208,0.0248,0.033,0.0363,0.0326,0.0336,0.0336,0.0328,0.0431,0.0432,0.0432,0.0433,0.0433,0,-0.0167,-0.0198,-0.027,-0.0313,-0.0331,-0.0367,-0.0392,-0.0369,-0.0371,-0.0284,-0.0277,-0.0139,-0.0061,0.0131,0.0237,0.0382,0.038,0.0445,0.035,0.0347,0.0354,0.0344,0.0335,0.0434,0.0434,0.0435,0.0435,0,-0.019,-0.0217,-0.0254,-0.0344,-0.0394,-0.0453,-0.0478,-0.0491,-0.045,-0.0407,-0.0305,-0.0185,-0.0032,0.0118,0.0257,0.0342,0.0406,0.0452,0.0449,0.0361,0.0353,0.0357,0.0347,0.0437,0.0437,0.0436,0.0436,0,-0.0202,-0.0231,-0.0286,-0.0355,-0.043,-0.0501,-0.0527,-0.0519,-0.051,-0.0419,-0.0382,-0.0202,-0.0085,0.0102,0.0214,0.0317,0.0313,0.0316,0.0321,0.032,0.0226,0.0195,0.0259,0,0,0,0,0,-0.0214,-0.0235,-0.0299,-0.0374,-0.0447,-0.0486,-0.0558,-0.0572,-0.0544,-0.0494,-0.0442,-0.0308,-0.0097,0.0026,0.0121,0.0204,0.0325,0.0318,0.0328,0.0449,0.0446,0.0351,0,0,0,0,0,0,-0.0225,-0.0266,-0.0285,-0.0362,-0.0411,-0.0489,-0.054,-0.0541,-0.0512,-0.0466,-0.0353,-0.0275,-0.0068,-0.0135,0.0139,0.0177,0.0192,0.043,0.0431,0.045,0.0448,0.0446,0.0347,0,0,0,0,0]}]]